Lapse_Rate
6.2 6.3 6.1 6.0 5.9 5.7 5.8 5.8 5.8 5.8 5.6 5.4 5.5 5.7 6.0 6.2 6.5 6.3 6.2 6.6 6.4 6.4 6.9 7.1 7.3 7.0 7.0 6.7 6.8 6.7 6.8 6.1 6.1 6.7 6.3 6.3 6.4 6.0 6.0 5.6 5.5 5.2 5.1 5.0
6.3 6.2 6.3 6.3 6.2 6.0 6.0 6.0 5.9 6.3 5.7 5.5 5.1 5.2 5.1 5.2 5.9 6.3 6.6 6.2 6.5 6.4 6.6 6.9 7.3 7.0 6.9 7.1 6.8 6.7 6.7 6.2 5.9 6.0 6.0 5.9 6.0 5.9 5.6 5.2 5.3 5.1 5.0 4.8
6.3 6.3 6.2 6.2 6.4 6.6 6.5 5.9 5.6 5.8 5.7 5.3 5.5 5.4 5.5 5.5 5.6 5.9 6.0 6.4 6.4 6.6 6.8 6.8 7.2 7.1 6.9 7.1 7.3 6.9 6.6 6.5 6.2 6.0 5.6 5.7 5.5 5.5 5.3 5.3 5.2 5.4 5.5 5.0
6.2 6.4 6.4 6.3 6.5 6.5 6.5 6.3 6.1 6.4 6.0 5.2 4.8 5.1 5.5 6.0 6.3 6.1 6.0 6.5 6.7 6.7 7.0 7.1 7.0 7.2 7.0 7.0 7.1 6.9 6.9 6.6 6.0 5.7 5.4 5.4 5.3 5.2 5.3 5.3 5.5 5.3 5.5 4.9
6.2 6.3 6.6 6.5 6.3 6.4 6.4 6.3 6.6 6.3 6.1 6.1 4.7 4.6 5.6 5.8 6.2 6.5 7.1 7.2 7.0 6.9 7.2 7.4 7.2 7.2 7.3 7.1 7.1 7.2 7.1 6.7 6.3 5.8 4.9 5.3 5.4 5.3 5.3 5.2 5.1 5.4 5.3 4.7
6.3 6.3 6.3 6.3 6.5 6.5 6.6 6.8 6.5 6.4 6.4 5.8 4.7 4.7 5.5 5.1 5.6 6.1 7.1 7.2 7.3 7.1 7.3 7.5 7.5 7.5 7.3 7.2 7.0 6.8 6.8 6.6 6.2 6.1 5.8 5.6 5.6 5.3 5.3 5.2 5.4 5.4 4.3 4.2
6.5 6.4 6.3 6.3 6.7 6.6 6.7 6.7 5.6 6.1 5.4 6.0 5.4 5.4 5.2 5.5 5.9 6.5 6.8 7.3 7.2 7.3 7.3 7.5 7.8 7.8 7.3 7.1 7.2 6.7 6.8 7.0 6.3 5.9 5.8 5.6 5.6 5.6 5.3 5.1 5.1 4.4 4.8 4.9
5.9 6.2 6.2 6.1 6.1 6.2 6.2 5.9 5.5 5.4 5.4 5.5 6.0 6.1 5.4 5.5 6.3 6.4 6.5 7.3 7.4 7.3 7.4 7.3 7.4 7.5 7.4 7.2 7.0 6.7 6.6 6.8 6.1 5.7 5.7 5.8 5.8 4.4 4.6 4.4 5.1 4.6 5.1 5.1
5.3 6.1 6.0 6.1 6.2 6.2 6.2 5.9 5.6 5.4 4.9 4.8 5.9 6.0 5.5 5.6 6.1 6.4 6.5 7.0 7.6 7.5 7.5 7.5 7.4 7.3 7.2 7.1 6.7 6.6 6.7 6.6 6.4 6.1 5.9 6.0 5.0 4.8 4.9 4.5 5.2 5.0 5.2 5.1
5.3 5.6 6.3 6.1 6.3 6.3 6.2 6.3 5.9 5.8 4.9 5.6 6.1 5.6 5.6 5.3 6.2 6.5 6.5 7.0 7.5 7.7 7.6 7.3 7.3 7.2 7.0 7.0 6.8 6.6 6.6 6.3 6.3 6.3 5.9 5.8 5.3 5.4 5.1 5.3 5.5 6.0 6.0 6.0
5.3 5.3 6.4 6.2 6.2 6.4 6.4 6.1 6.1 5.7 5.6 5.6 5.8 6.2 6.0 5.8 6.0 6.3 6.8 6.9 7.4 7.4 7.2 7.2 7.1 7.1 6.9 6.4 6.3 6.2 5.8 5.7 5.9 6.1 6.3 5.7 5.6 5.7 5.4 6.0 6.3 5.8 5.7 5.8
5.1 5.2 5.8 6.2 6.1 6.2 6.3 6.1 6.1 5.8 5.9 5.6 5.5 6.3 6.4 6.3 6.0 6.1 6.2 6.4 6.5 6.9 6.9 7.1 6.9 6.8 6.7 6.4 5.4 6.1 6.0 5.8 5.8 5.6 6.0 5.7 5.4 5.6 6.0 5.8 6.0 5.7 5.6 5.6
4.9 5.1 5.5 5.9 6.0 6.2 6.2 6.3 6.1 6.1 6.1 6.1 6.0 6.6 6.6 6.5 6.4 6.3 5.8 6.2 6.4 6.5 6.6 6.6 6.8 6.6 6.4 6.2 6.4 5.9 5.6 5.4 5.5 5.6 5.4 5.5 5.8 5.5 5.5 5.4 5.4 5.4 5.4 5.3
5.0 5.1 5.3 5.5 5.7 5.8 6.1 6.5 6.2 6.3 6.3 6.4 6.7 6.6 6.5 6.6 6.7 6.5 6.4 6.5 6.3 6.1 6.4 6.2 6.3 6.1 6.0 6.2 5.8 5.7 5.8 5.8 5.9 5.9 5.8 5.7 5.6 5.6 5.5 5.5 5.4 5.3 5.1 5.0
5.0 5.2 5.5 5.6 5.7 6.1 6.3 6.6 6.5 6.6 6.7 6.5 6.8 6.7 6.5 6.6 6.7 6.7 6.6 6.4 6.3 6.4 6.3 6.1 6.4 6.6 6.7 6.4 6.4 6.0 6.0 5.8 5.8 5.6 5.6 5.5 5.3 5.3 5.2 5.0 4.9 4.7 4.5 4.4
4.7 5.1 5.4 6.0 5.7 6.0 6.4 6.5 6.7 6.8 6.9 7.1 7.0 7.0 6.7 6.6 6.6 6.7 6.8 6.7 6.6 6.6 6.7 6.7 6.8 6.7 6.4 6.2 6.2 6.0 5.9 5.7 5.7 5.5 5.3 5.1 4.9 4.8 4.7 4.4 4.3 4.1 4.0 3.9
4.7 4.7 5.0 5.6 5.7 6.0 6.5 6.9 6.7 6.8 7.0 7.0 7.1 7.1 6.8 6.8 6.7 6.6 6.6 6.7 6.7 6.7 6.7 6.6 6.5 6.4 6.3 6.4 6.3 6.0 5.7 5.5 5.3 5.1 4.9 4.8 4.7 4.6 4.6 4.4 4.3 4.2 4.1 3.9
5.5 4.9 4.7 5.1 5.4 5.4 6.6 6.6 6.7 6.7 6.9 7.0 7.1 7.1 7.0 7.1 7.0 6.8 6.7 6.6 6.6 6.6 6.5 6.5 6.5 6.5 6.3 6.1 5.9 5.8 5.6 5.4 5.2 5.0 4.7 4.6 4.6 4.4 4.0 3.9 3.8 3.7 3.6 3.5
5.8 5.1 4.8 4.8 4.8 5.9 6.7 6.6 6.7 6.8 6.8 7.0 7.2 7.2 7.1 7.1 7.1 7.0 7.0 6.9 6.8 6.7 6.6 6.5 6.5 6.4 6.2 6.1 6.0 5.8 5.6 5.3 5.0 4.8 4.7 4.5 4.4 4.2 4.1 4.1 3.9 3.7 3.4 3.3
6.0 5.5 5.0 4.6 4.6 4.9 6.2 6.2 6.5 6.7 6.8 6.9 7.1 7.1 7.2 7.1 7.1 7.2 7.1 7.1 7.0 6.9 6.9 6.8 6.5 6.3 6.2 6.1 5.9 5.7 5.5 5.4 5.3 5.3 5.1 4.8 4.7 4.5 4.1 3.8 3.5 3.3 3.0 2.7
6.2 5.5 5.3 4.8 4.5 5.8 5.9 5.8 6.0 6.2 6.5 6.8 6.9 7.0 7.1 7.1 7.1 7.1 7.1 7.1 7.1 7.0 6.9 6.9 6.8 6.7 6.4 6.1 5.9 5.8 5.7 5.5 5.5 5.4 5.0 4.8 4.4 4.0 3.8 3.4 3.2 3.0 3.0 2.9
6.6 6.3 5.8 5.2 4.9 5.4 6.0 5.8 5.8 6.2 6.3 6.4 6.6 6.8 7.0 7.1 7.1 7.1 7.1 7.1 7.1 7.0 6.9 6.9 6.8 6.8 6.6 6.4 6.0 5.9 5.8 5.6 5.5 5.3 5.1 4.6 4.2 4.0 3.6 3.4 3.2 3.2 3.2 3.0
6.2 6.5 6.6 6.5 7.0 6.5 6.0 5.8 6.0 6.4 6.3 6.3 6.4 6.6 6.8 6.9 7.0 7.1 7.1 7.2 7.1 7.1 6.9 6.8 6.7 6.7 6.6 6.5 6.3 6.0 5.8 5.6 5.5 5.2 4.8 4.5 4.2 3.8 3.5 3.4 3.4 3.3 3.1 2.8
6.6 6.3 6.3 6.7 7.6 6.9 6.0 5.8 5.6 5.5 5.8 5.9 6.2 6.5 6.5 6.6 6.8 6.8 7.0 7.1 7.1 7.1 7.0 6.9 6.7 6.6 6.5 6.4 6.3 6.0 5.7 5.5 5.3 4.9 4.6 4.3 3.9 3.7 3.5 3.5 3.4 3.3 3.1 3.1
6.6 6.3 6.7 7.0 7.5 6.7 6.2 6.0 6.0 5.6 5.5 5.7 5.8 5.9 6.1 6.6 6.8 6.6 6.8 6.9 7.0 7.0 7.0 6.9 6.8 6.6 6.5 6.4 6.2 6.0 5.7 5.4 5.0 4.7 4.4 4.1 3.8 3.7 3.5 3.5 3.3 3.1 3.1 3.2
6.9 7.1 6.7 7.4 7.3 6.2 6.0 6.1 6.2 6.0 5.7 5.9 5.4 5.6 5.8 6.1 6.5 6.5 6.6 6.7 6.8 6.9 6.9 6.9 6.8 6.7 6.5 6.3 6.1 6.0 5.7 5.2 5.0 4.6 4.3 4.1 3.9 3.8 3.6 3.4 3.1 3.0 2.8 2.8
Wind_Speed
4 4 2 4 3 5 6 5 12 15 13 5 10 15 14 16 12 11 11 12 10 8 9 6 12 15 13 15 15 17 15 14 10 5 4 4 5 6 7 10 13 11 9 9
4 1 2 4 5 4 7 10 9 10 4 4 9 16 10 12 11 8 7 9 11 10 12 6 6 14 15 16 16 16 16 14 11 7 3 3 3 3 5 6 8 12 12 11
3 3 3 2 6 7 7 4 7 7 7 2 12 5 8 20 9 8 13 10 10 9 13 12 5 14 15 16 17 16 15 14 12 13 7 5 5 3 3 4 5 7 8 6
4 3 4 4 4 2 5 2 7 4 2 5 10 3 5 20 20 22 18 15 13 14 11 12 10 12 16 16 14 16 16 15 11 11 10 8 5 4 2 5 5 7 17 10
4 5 4 3 4 2 7 10 1 2 1 1 13 2 2 16 20 25 24 17 14 12 11 13 12 12 14 12 15 14 13 12 7 9 7 6 6 7 7 6 7 6 11 2
4 3 2 3 4 0 11 3 3 3 1 3 9 3 5 11 17 21 20 15 14 12 10 7 6 6 8 9 10 10 10 7 7 9 9 11 14 12 9 10 7 4 7 10
7 4 4 2 5 4 10 6 4 4 6 3 5 3 4 15 21 15 15 14 12 13 10 4 6 8 9 10 9 7 9 10 10 11 11 13 11 8 15 13 11 13 9 6
4 6 6 6 2 3 4 3 3 1 3 6 7 7 6 11 14 15 14 13 14 16 13 13 8 8 10 10 11 11 11 11 10 9 10 10 7 4 2 4 6 6 7 8
3 5 5 0 3 2 2 4 2 3 1 3 3 1 4 17 20 20 18 18 16 14 14 14 13 7 10 11 10 11 12 12 12 13 11 11 7 7 5 7 5 5 6 6
2 4 2 5 0 4 4 3 1 3 5 5 5 3 9 13 16 16 15 15 15 14 14 13 13 12 11 11 10 10 10 13 9 8 9 7 5 5 6 6 5 4 4 4
3 2 5 2 4 2 3 3 4 1 1 1 5 3 5 1 9 11 12 12 12 13 12 12 11 13 12 14 12 11 12 11 11 8 7 9 7 7 6 6 5 5 6 6
1 3 4 4 5 3 1 2 3 2 2 0 1 3 2 2 4 6 7 9 11 10 11 10 11 13 14 12 13 13 13 11 10 9 11 10 10 10 9 9 9 8 8 8
3 1 3 5 2 2 2 1 2 2 1 2 1 2 1 2 2 5 6 7 8 9 10 11 13 13 13 12 12 13 10 11 11 12 12 12 12 12 12 11 11 11 11 10
3 3 4 4 4 1 5 4 1 2 1 1 4 4 2 3 2 3 4 5 6 9 10 10 11 12 11 12 12 12 12 12 11 14 13 12 12 11 11 11 11 10 9 9
3 3 3 6 10 4 6 14 6 6 4 3 2 3 2 2 2 2 2 4 7 8 8 10 10 11 12 12 13 12 12 12 12 14 13 12 10 11 11 11 10 10 10 8
2 1 2 4 1 4 6 8 6 5 4 5 4 4 3 1 2 4 4 4 6 6 7 9 10 12 11 11 12 11 10 10 12 12 11 9 10 10 9 9 9 9 8 7
1 1 3 4 4 9 4 4 5 3 4 4 4 4 4 3 4 4 5 6 7 7 7 8 9 9 9 9 9 11 10 9 11 11 9 9 9 9 8 7 6 6 5 4
4 2 1 4 6 2 3 1 3 5 5 6 2 4 5 4 3 3 4 6 7 8 8 8 8 8 8 8 9 10 9 9 10 9 8 7 7 7 5 5 5 4 3 3
3 4 1 1 2 7 3 3 5 5 5 7 6 4 4 4 2 3 6 6 8 9 8 7 7 7 8 9 9 11 10 9 9 8 7 6 5 5 4 4 3 3 2 3
5 4 2 2 1 4 4 1 2 2 4 4 5 6 6 4 2 2 5 5 7 8 9 10 9 7 9 7 8 10 9 9 8 6 6 4 5 5 4 3 3 2 2 3
3 1 4 2 3 8 7 1 1 2 4 4 5 5 7 5 3 3 5 4 6 7 11 10 9 9 9 8 8 9 8 8 6 6 6 6 5 5 3 2 2 2 2 2
7 7 4 2 3 6 6 4 5 5 2 4 5 5 8 5 5 4 5 8 9 10 11 9 10 9 8 8 9 8 8 5 6 6 7 6 5 4 3 4 3 2 3 3
4 6 6 9 6 4 6 5 4 4 4 4 4 6 8 7 6 6 6 9 9 12 10 10 11 10 7 7 8 9 6 6 7 7 6 5 5 4 4 3 3 2 3 3
4 4 3 2 5 12 12 7 6 7 7 4 5 6 7 6 7 6 7 9 10 10 11 10 12 11 9 7 6 9 7 7 7 6 5 4 4 4 3 3 2 2 3 4
4 6 6 6 8 4 9 9 7 4 5 5 4 6 9 7 7 8 9 10 10 11 9 11 11 10 10 9 8 7 7 7 6 5 4 3 3 3 3 3 2 4 4 5
5 7 6 7 6 4 5 4 4 6 9 10 8 5 5 8 9 9 9 10 11 11 10 10 11 12 11 10 8 7 6 6 6 5 3 2 2 2 2 3 4 8 9 10
Wind_Direction
355 42 333 284 214 246 270 263 275 284 286 293 273 289 292 304 304 286 283 291 300 283 291 289 212 195 176 172 173 178 175 173 165 155 134 149 172 174 184 189 179 167 168 170
5 281 240 271 267 280 284 299 295 298 322 249 326 307 309 7 334 339 4 353 332 321 307 304 242 197 188 176 176 175 178 174 172 163 130 119 148 182 166 142 126 141 159 180
220 267 300 337 318 336 304 255 323 299 334 54 345 346 355 354 355 356 352 334 321 309 302 298 275 204 193 181 175 176 177 177 174 143 123 97 99 92 100 120 97 96 118 140
243 295 337 321 272 316 308 188 319 312 360 16 18 304 10 0 351 347 342 335 319 311 303 289 270 219 197 196 178 177 177 178 162 155 151 168 175 152 123 116 119 106 73 27
272 326 344 315 298 246 266 327 44 89 347 329 13 328 327 11 349 336 328 336 324 314 304 293 279 247 205 189 184 179 177 179 173 166 172 174 96 97 105 98 96 103 107 165
262 301 247 270 319 202 308 20 62 75 315 38 352 332 334 355 339 318 322 337 337 334 324 311 260 191 177 166 174 176 169 127 118 116 118 118 116 121 123 133 133 150 167 200
330 310 299 322 336 9 10 11 357 22 9 302 337 324 4 347 330 323 331 348 354 5 5 64 108 127 132 147 151 151 148 121 121 120 126 128 141 147 158 166 177 168 183 203
17 335 6 350 34 293 7 40 97 21 345 312 339 350 328 334 334 348 10 12 19 12 20 20 47 104 121 111 110 112 115 115 119 132 140 138 126 166 92 157 153 163 176 189
10 277 312 290 332 355 357 33 114 118 279 286 300 5 209 7 355 355 7 10 13 13 17 27 33 53 89 91 105 115 120 113 110 123 129 143 175 139 139 148 147 161 164 165
194 297 255 292 164 42 84 147 31 40 22 340 317 359 332 3 342 350 6 9 4 11 24 28 28 45 62 75 84 88 109 133 116 118 139 127 136 104 113 112 117 130 132 133
136 127 289 300 26 323 3 26 40 122 71 344 316 32 326 27 311 351 360 9 11 11 22 36 45 54 58 67 62 75 70 69 67 71 72 81 78 75 80 85 95 111 109 124
93 149 280 267 306 268 140 116 95 72 322 242 283 292 327 309 288 349 4 4 13 20 27 32 48 62 67 66 66 66 65 72 79 82 79 78 73 71 72 74 79 95 94 94
181 332 328 352 7 5 43 82 125 126 111 222 320 342 69 306 24 354 19 19 21 37 32 51 56 60 63 62 68 73 70 78 78 81 83 77 78 78 79 82 84 85 91 89
115 168 186 213 231 213 294 277 161 147 199 207 232 298 309 22 52 30 30 38 55 52 50 68 73 74 74 74 76 72 74 76 81 82 81 81 82 83 82 79 75 75 76 78
112 240 199 251 258 240 256 269 240 207 215 212 202 228 259 264 132 152 104 80 75 74 75 71 76 79 81 82 82 82 79 78 83 85 82 81 84 83 84 80 78 75 70 69
344 247 354 286 291 181 259 247 228 224 222 252 250 274 177 172 141 147 154 125 108 95 84 84 85 86 85 88 89 89 87 84 91 87 87 86 83 79 76 76 75 73 72 68
337 93 37 273 327 305 285 223 187 182 194 167 194 216 162 171 190 196 180 168 153 139 127 116 111 109 106 100 102 98 97 96 90 91 88 85 83 78 72 75 77 74 68 63
137 106 129 278 327 267 245 199 214 214 236 208 221 207 179 176 175 187 186 178 169 160 150 140 135 126 119 116 109 111 104 98 99 99 101 104 109 113 119 114 109 104 74 44
155 124 221 292 283 294 293 189 171 175 280 198 200 176 156 140 128 256 198 192 179 173 163 150 143 133 131 130 129 121 118 119 116 114 113 113 113 108 98 91 79 58 27 8
89 81 150 130 243 255 247 247 156 106 288 201 177 172 158 153 156 241 182 182 170 162 157 153 144 132 134 137 134 120 114 109 102 101 95 90 84 83 86 66 53 39 15 352
129 154 197 194 256 282 245 240 158 118 242 171 183 175 158 186 191 145 144 152 155 157 154 144 143 144 140 138 128 113 115 106 112 107 99 88 86 91 86 91 60 26 14 355
167 153 189 134 207 278 174 87 184 210 215 181 193 189 193 204 156 161 166 159 156 149 144 146 137 136 140 139 129 125 117 125 117 111 105 101 89 74 61 48 42 50 16 345
209 191 176 186 211 230 209 220 208 176 192 194 195 204 198 196 206 170 171 165 161 155 149 145 140 135 135 143 143 132 141 136 122 114 104 92 80 62 45 33 23 14 359 344
244 177 211 136 228 227 245 255 238 204 226 215 214 190 178 187 181 173 159 162 156 154 152 148 143 143 139 142 132 129 139 131 122 113 105 94 78 59 34 38 30 350 357 337
193 138 178 266 279 272 254 241 251 215 224 247 229 195 198 182 181 171 167 166 163 157 149 152 150 147 144 141 132 135 135 136 124 120 118 104 80 47 27 26 11 360 341 324
189 175 186 221 206 206 225 180 183 211 225 221 201 210 206 191 180 166 171 168 162 159 152 148 147 144 147 144 140 140 142 145 140 132 135 124 93 60 46 12 357 2 352 344